DW8790 Maspalomas ES current weather conditions

sailwx.info

Wind from 261 at 2 knots gusting 4

Air temperature 20.0° C
Dewpoint 15.6° C

Last reported at 2016-May-28 21:45 UTC.
Time now 2016-May-28 22:09 UTC

Location: N 27°46' W 015°34'.
View on Google Maps.

See reports from other nearby stations

  
Tides and Currents Weather Stations Pressure Air Temp Water Temp Dewpoint Dewpoint Depression Visibility Wind Speed Wind Dir Waves Ship Positions
date/time (UTC)wind fromknots sea level pressurealtimeterstation pressurevisibilityair tempwater tempwave heightnotes
2016-May-28 21:45 261 2 gusting 4 20.0
2016-May-28 21:40 267 2 gusting 4 20.6
2016-May-28 21:35 273 2 gusting 4 20.6
2016-May-28 21:30 273 0 gusting 4 20.6
2016-May-28 21:25 260 2 gusting 4 20.6
2016-May-28 21:20 285 2 gusting 4 20.6
2016-May-28 21:15 277 2 gusting 4 20.6
2016-May-28 21:10 255 2 gusting 4 20.6
2016-May-28 21:05 248 1 gusting 4 20.6
2016-May-28 21:00 280 1 gusting 4 20.6
2016-May-28 20:55 251 2 gusting 5 20.6
2016-May-28 20:40 284 2 gusting 5 20.6
2016-May-28 20:35 264 2 gusting 5 20.6
2016-May-28 20:30 235 3 gusting 6 20.6
2016-May-28 20:25 267 2 gusting 5 21.1
2016-May-28 20:20 239 2 gusting 6 21.1
2016-May-28 20:15 232 2 gusting 5 20.6
2016-May-28 20:10 264 1 gusting 4 21.1
2016-May-28 20:05 259 2 gusting 6 21.1
2016-May-28 20:00 250 0 gusting 2 21.1
2016-May-28 19:55 253 2 gusting 5 21.1
2016-May-28 19:50 268 2 gusting 6 21.1
2016-May-28 19:45 291 4 gusting 6 21.1
2016-May-28 19:40 272 2 gusting 6 21.1
2016-May-28 19:35 273 5 gusting 6 21.1
2016-May-28 19:30 266 4 gusting 6 21.1
2016-May-28 19:25 251 4 gusting 7 21.1
2016-May-28 19:20 291 4 gusting 6 21.1
2016-May-28 19:15 221 3 gusting 6 21.1
2016-May-28 19:10 230 3 gusting 6 21.7
2016-May-28 19:05 270 3 gusting 6 21.7
2016-May-28 19:00 273 5 gusting 8 21.7
2016-May-28 18:55 286 5 gusting 8 21.7
2016-May-28 18:50 283 4 gusting 8 21.7
2016-May-28 18:45 247 5 gusting 8 21.7
2016-May-28 18:40 281 5 gusting 10 21.7
2016-May-28 18:35 274 6 gusting 10 21.7
2016-May-28 18:30 261 5 gusting 10 21.7
2016-May-28 18:25 299 6 gusting 10 21.7
2016-May-28 18:20 272 6 gusting 11 22.2
2016-May-28 18:15 270 6 gusting 10 22.2
2016-May-28 18:10 253 6 gusting 10 22.2
2016-May-28 18:05 296 6 gusting 10 22.2
2016-May-28 18:00 281 6 gusting 10 22.2
2016-May-28 17:55 260 5 gusting 10 22.2
2016-May-28 17:50 263 5 gusting 10 22.2
2016-May-28 17:45 245 6 gusting 11 22.8
2016-May-28 17:40 272 6 gusting 10 22.8
2016-May-28 17:35 239 6 gusting 10 22.8
2016-May-28 17:30 267 6 gusting 10 22.8
2016-May-28 17:25 309 5 gusting 8 22.8
2016-May-28 17:20 289 5 gusting 7 22.8
2016-May-28 17:15 253 5 gusting 10 22.8
2016-May-28 17:10 249 5 gusting 8 22.8
2016-May-28 17:05 213 4 gusting 6 22.2
2016-May-28 17:00 291 5 gusting 7 22.8
2016-May-28 16:55 245 4 gusting 10 22.2
2016-May-28 16:50 275 5 gusting 8 22.2
2016-May-28 16:45 220 2 gusting 6 22.2
2016-May-28 16:40 219 4 gusting 7 22.2
2016-May-28 16:35 170 5 gusting 10 22.2
2016-May-28 16:30 230 4 gusting 8 22.2
2016-May-28 16:25 189 5 gusting 8 22.8
2016-May-28 16:20 277 7 gusting 13 22.8
2016-May-28 16:15 309 7 gusting 12 23.3
2016-May-28 16:10 287 6 gusting 10 23.3
2016-May-28 16:05 329 6 gusting 12 23.3
2016-May-28 16:00 267 6 gusting 10 23.3
2016-May-28 15:55 290 7 gusting 11 23.3
2016-May-28 15:50 262 6 gusting 11 23.9
2016-May-28 15:45 289 6 gusting 12 23.3
2016-May-28 15:40 266 8 gusting 11 23.3
2016-May-28 15:35 323 8 gusting 13 23.3
2016-May-28 15:30 259 6 gusting 12 23.3
2016-May-28 15:25 199 4 gusting 10 22.8
2016-May-28 15:20 258 6 gusting 12 23.3
2016-May-28 15:15 192 3 gusting 13 23.3
2016-May-28 15:10 109 3 gusting 10 23.9
2016-May-28 15:05 147 1 gusting 11 23.9
2016-May-28 15:00 150 5 gusting 10 24.4
2016-May-28 14:55 091 4 gusting 10 24.4
2016-May-28 14:50 113 3 gusting 8 24.4
2016-May-28 14:45 114 6 gusting 12 23.9
2016-May-28 14:40 138 4 gusting 10 24.4
2016-May-28 14:35 148 6 gusting 11 23.9
2016-May-28 14:30 136 3 gusting 10 24.4
2016-May-28 14:25 116 3 gusting 7 25.0
2016-May-28 14:20 103 2 gusting 10 25.0
2016-May-28 14:15 128 5 gusting 11 24.4
2016-May-28 14:10 138 3 gusting 8 23.9
2016-May-28 14:05 126 1 gusting 7 23.9
2016-May-28 14:00 110 3 gusting 10 24.4
2016-May-28 13:55 140 4 gusting 10 25.0
2016-May-28 13:50 117 5 gusting 13 25.0
2016-May-28 13:45 140 4 gusting 11 25.0
2016-May-28 13:40 165 4 gusting 10 24.4
2016-May-28 13:35 128 5 gusting 10 23.9
2016-May-28 13:30 152 6 gusting 11 23.3
2016-May-28 13:25 131 4 gusting 10 24.4
2016-May-28 13:20 098 5 gusting 10 25.0
2016-May-28 13:15 153 4 gusting 10 23.9
2016-May-28 13:10 198 2 gusting 6 23.9
2016-May-28 13:05 214 3 gusting 6 23.3
2016-May-28 13:00 183 2 gusting 6 23.3
2016-May-28 12:55 231 2 gusting 8 23.3
2016-May-28 12:50 236 2 gusting 6 22.8
2016-May-28 12:40 214 4 gusting 7 22.2
2016-May-28 12:35 189 1 gusting 8 22.2
2016-May-28 12:30 188 4 gusting 10 22.8
2016-May-28 12:25 111 4 gusting 10 22.8
2016-May-28 12:20 194 4 gusting 10 22.2
2016-May-28 12:15 230 5 gusting 10 22.8
2016-May-28 12:10 170 5 gusting 7 22.2
2016-May-28 12:05 174 4 gusting 7 22.8
2016-May-28 12:00 201 4 gusting 6 22.8
2016-May-28 11:55 164 1 gusting 10 22.8
2016-May-28 11:50 118 5 gusting 10 22.8
2016-May-28 11:45 184 4 gusting 10 22.8
2016-May-28 11:40 166 3 gusting 10 22.8
2016-May-28 11:35 128 2 gusting 6 22.8
2016-May-28 11:30 152 2 gusting 6 22.8
2016-May-28 11:25 123 2 gusting 7 22.2
2016-May-28 11:20 148 4 gusting 7 22.8
2016-May-28 11:15 136 4 gusting 10 22.2
2016-May-28 11:10 152 2 gusting 6 22.2
2016-May-28 11:05 095 1 gusting 5 22.2
2016-May-28 11:00 144 4 gusting 8 22.2
2016-May-28 10:55 132 2 gusting 6 22.2
2016-May-28 10:50 148 2 gusting 6 22.2
2016-May-28 10:45 092 3 gusting 6 22.2
2016-May-28 10:40 143 3 gusting 7 22.2
2016-May-28 10:35 210 1 gusting 5 22.8
2016-May-28 10:30 143 2 gusting 6 22.2
2016-May-28 10:25 141 2 gusting 5 22.8
2016-May-28 10:20 081 3 gusting 6 22.2
2016-May-28 10:15 139 3 gusting 6 22.2
2016-May-28 10:10 139 3 gusting 6 22.2
2016-May-28 10:05 128 2 gusting 7 22.2
2016-May-28 10:00 146 1 gusting 7 22.2
2016-May-28 09:55 163 4 gusting 6 21.7
2016-May-28 09:50 175 1 gusting 6 21.7
2016-May-28 09:45 157 4 gusting 7 21.7
2016-May-28 09:40 123 2 gusting 6 21.7
2016-May-28 09:35 156 2 gusting 6 21.7
2016-May-28 09:30 134 2 gusting 6 21.7
2016-May-28 09:25 146 1 gusting 6 21.7
2016-May-28 09:20 159 2 gusting 6 21.7
2016-May-28 09:15 144 1 gusting 6 21.7
2016-May-28 09:10 148 1 gusting 4 21.7
2016-May-28 09:05 156 1 gusting 4 21.7
2016-May-28 09:00 099 1 gusting 5 21.7
2016-May-28 08:55 134 1 gusting 5 21.7
2016-May-28 08:50 099 0 gusting 2 21.7
2016-May-28 08:45 146 0 gusting 2 21.1
2016-May-28 08:40 157 21.1
2016-May-28 08:35 157 0 gusting 2 21.1
2016-May-28 08:30 157 0 gusting 1 21.1
2016-May-28 08:25 108 0 gusting 2 21.7
2016-May-28 08:20 150 21.7
2016-May-28 08:15 088 21.7
2016-May-28 08:10 088 21.7
2016-May-28 08:05 088 21.1
2016-May-28 08:00 088 21.1
2016-May-28 07:55 088 20.6
2016-May-28 07:50 088 20.6
2016-May-28 07:45 088 20.6
2016-May-28 07:40 088 20.0
2016-May-28 07:35 088 20.0
2016-May-28 07:30 073 20.0
2016-May-28 07:25 071 19.4
2016-May-28 07:20 071 19.4
2016-May-28 07:15 071 18.9
2016-May-28 07:10 071 18.9
2016-May-28 07:05 071 18.3
2016-May-28 07:00 071 18.3
2016-May-28 06:55 071 18.3
2016-May-28 06:50 312 17.8
2016-May-28 06:45 312 17.8
2016-May-28 06:40 312 17.8
2016-May-28 06:35 312 17.8
2016-May-28 06:30 312 17.8
2016-May-28 06:25 312 17.8
2016-May-28 06:20 312 17.8
2016-May-28 06:15 312 17.8
2016-May-28 06:10 312 17.8
2016-May-28 06:05 312 17.8
2016-May-28 06:00 312 17.8
2016-May-28 05:55 312 17.8
2016-May-28 05:50 340 1 gusting 2 17.8
2016-May-28 05:45 296 17.8
2016-May-28 05:40 296 17.8
2016-May-28 05:35 296 17.8
2016-May-28 05:30 296 17.8
2016-May-28 05:25 296 17.2
2016-May-28 05:20 296 17.2
2016-May-28 05:15 323 0 gusting 2 17.2
2016-May-28 05:10 321 1 gusting 2 17.2
2016-May-28 05:05 320 1 gusting 2 17.2
2016-May-28 05:00 323 1 gusting 2 17.2
2016-May-28 04:55 335 17.2
2016-May-28 04:50 335 17.2
2016-May-28 04:45 335 17.2
2016-May-28 04:40 335 17.2
2016-May-28 04:35 335 17.2
2016-May-28 04:30 335 17.8
2016-May-28 04:25 335 17.8
2016-May-28 04:20 335 17.8
2016-May-28 04:15 335 17.8
2016-May-28 04:10 335 17.8
2016-May-28 04:05 335 17.8
2016-May-28 04:00 335 17.8
2016-May-28 03:55 335 17.8
2016-May-28 03:50 321 17.8
2016-May-28 03:45 318 1 gusting 2 17.8
2016-May-28 03:40 350 17.8
2016-May-28 03:35 075 17.8
2016-May-28 03:30 075 17.8
2016-May-28 03:25 075 17.8
2016-May-28 03:20 075 17.8
2016-May-28 03:15 075 17.8
2016-May-28 03:10 075 17.8
2016-May-28 03:05 075 17.8
2016-May-28 03:00 075 17.8
2016-May-28 02:55 075 17.8
2016-May-28 02:50 075 17.8
2016-May-28 02:45 075 17.8
2016-May-28 02:40 075 17.8
2016-May-28 02:35 075 18.3
2016-May-28 02:30 075 18.3
2016-May-28 02:25 075 18.3
2016-May-28 02:20 075 18.3
2016-May-28 02:15 075 18.3
2016-May-28 02:10 075 18.3
2016-May-28 02:05 075 18.3
2016-May-28 02:00 075 18.3
2016-May-28 01:55 075 18.3
2016-May-28 01:50 075 18.3
2016-May-28 01:45 075 18.3
2016-May-28 01:40 075 18.3
2016-May-28 01:35 075 18.3
2016-May-28 01:30 075 18.3
2016-May-28 01:25 075 18.3
2016-May-28 01:20 075 18.3
2016-May-28 01:15 075 18.3
2016-May-28 01:10 075 18.3
2016-May-28 01:05 075 18.9
2016-May-28 01:00 094 18.9
2016-May-28 00:55 094 18.9
2016-May-28 00:50 094 18.9
2016-May-28 00:40 105 18.9
2016-May-28 00:35 105 0 gusting 2 18.9
2016-May-28 00:30 073 18.9
2016-May-28 00:25 101 18.9
2016-May-28 00:20 082 18.9
2016-May-28 00:15 080 0 gusting 2 18.9
2016-May-28 00:10 107 18.9
2016-May-28 00:05 092 0 gusting 2 18.9
2016-May-28 00:00 098 18.9
2016-May-27 23:55 115 19.4
2016-May-27 23:50 107 0 gusting 2 19.4
2016-May-27 23:45 107 19.4
2016-May-27 23:40 083 19.4
2016-May-27 23:35 117 19.4
2016-May-27 23:30 117 19.4
2016-May-27 23:25 117 19.4
2016-May-27 23:20 078 0 gusting 2 19.4
2016-May-27 23:15 087 19.4
2016-May-27 23:10 079 19.4
2016-May-27 23:05 091 1 gusting 4 19.4
2016-May-27 23:00 106 0 gusting 1 19.4
2016-May-27 22:55 101 19.4
2016-May-27 22:50 089 20.0
2016-May-27 22:45 080 20.0
2016-May-27 22:40 061 20.0
2016-May-27 22:35 061 20.0
2016-May-27 22:30 061 20.0
2016-May-27 22:25 167 20.0
2016-May-27 22:20 167 20.0
2016-May-27 22:15 167 20.0
2016-May-27 22:10 167 20.0
2016-May-27 22:05 167 20.0
2016-May-27 22:00 167 20.0
2016-May-27 21:55 167 20.0
2016-May-27 21:50 167 20.0
2016-May-27 21:45 167 20.0
2016-May-27 21:40 167 20.0
2016-May-27 21:35 167 20.0
2016-May-27 21:30 167 20.0
2016-May-27 21:25 167 20.0
2016-May-27 21:20 167 20.0
2016-May-27 21:15 167 20.0
2016-May-27 21:10 167 20.0
2016-May-27 21:05 167 20.0
2016-May-27 21:00 167 20.0
2016-May-27 20:55 167 20.0
2016-May-27 20:50 167 20.0
2016-May-27 20:45 167 20.0
2016-May-27 20:35 167 0 gusting 2 20.0
2016-May-27 20:30 217 20.0
2016-May-27 20:25 165 20.0
2016-May-27 20:20 165 20.0
2016-May-27 20:15 165 20.0
2016-May-27 20:10 165 1 gusting 2 20.0
2016-May-27 20:05 165 1 gusting 2 20.0
2016-May-27 20:00 160 2 gusting 4 20.0
2016-May-27 19:55 184 2 gusting 5 20.0
2016-May-27 19:50 208 3 gusting 5 20.0
2016-May-27 19:45 180 3 gusting 5 20.6
2016-May-27 19:40 222 3 gusting 5 20.6
2016-May-27 19:35 162 1 gusting 4 20.6
2016-May-27 19:30 161 0 gusting 4 20.6
2016-May-27 19:25 193 2 gusting 4 20.6
2016-May-27 19:20 270 1 gusting 5 20.6
2016-May-27 19:15 230 2 gusting 5 20.6
2016-May-27 19:10 345 3 gusting 6 20.6
2016-May-27 19:05 208 1 gusting 6 21.1
2016-May-27 19:00 188 2 gusting 6 21.1
2016-May-27 18:55 357 3 gusting 6 21.1
2016-May-27 18:50 339 6 gusting 8 21.1
2016-May-27 18:45 266 6 gusting 7 21.7
2016-May-27 18:40 192 4 gusting 6 21.7
2016-May-27 18:35 257 5 gusting 7 21.7
2016-May-27 18:30 183 2 gusting 5 21.7
2016-May-27 18:25 210 4 gusting 5 21.7
2016-May-27 18:20 200 5 gusting 7 21.7
2016-May-27 18:15 292 6 gusting 7 21.7
2016-May-27 18:10 186 4 gusting 6 21.7
2016-May-27 18:05 225 5 gusting 7 22.2
2016-May-27 18:00 299 5 gusting 7 22.2
2016-May-27 17:55 250 4 gusting 7 22.2
2016-May-27 17:50 262 6 gusting 10 22.2
2016-May-27 17:45 300 4 gusting 10 22.2
2016-May-27 17:40 285 5 gusting 10 22.8
2016-May-27 17:35 349 6 gusting 10 22.8
2016-May-27 17:30 246 8 gusting 12 22.8
2016-May-27 17:25 287 5 gusting 8 22.8
2016-May-27 17:20 345 7 gusting 12 22.8
2016-May-27 17:15 252 6 gusting 11 22.8
2016-May-27 17:10 307 7 gusting 11 22.8
2016-May-27 17:05 210 6 gusting 10 22.8
2016-May-27 17:00 227 7 gusting 8 22.8
2016-May-27 16:55 228 6 gusting 10 22.8
2016-May-27 16:50 331 6 gusting 10 22.8
2016-May-27 16:45 228 6 gusting 13 22.8
2016-May-27 16:40 322 6 gusting 10 22.8
2016-May-27 16:35 325 6 gusting 11 22.8
2016-May-27 16:30 244 6 gusting 11 22.8
2016-May-27 16:25 217 7 gusting 10 22.8
2016-May-27 16:20 334 6 gusting 11 22.8
2016-May-27 16:15 280 5 gusting 11 22.8
2016-May-27 16:10 236 6 gusting 11 22.8
2016-May-27 16:05 218 6 gusting 10 22.2
2016-May-27 16:00 255 6 gusting 10 22.2
2016-May-27 15:55 269 6 gusting 10 22.2
2016-May-27 15:50 237 6 gusting 11 22.2
2016-May-27 15:45 244 4 gusting 6 22.2
2016-May-27 15:40 296 6 gusting 10 22.2
2016-May-27 15:35 243 4 gusting 7 22.2
2016-May-27 15:30 215 6 gusting 10 21.7
2016-May-27 15:25 242 4 gusting 6 21.1
2016-May-27 15:20 209 2 gusting 6 20.6
2016-May-27 15:15 189 4 gusting 7 20.6
2016-May-27 15:10 221 1 gusting 6 20.6
2016-May-27 15:05 182 1 gusting 5 20.6
2016-May-27 15:00 175 0 gusting 6 20.6
2016-May-27 14:55 152 1 gusting 6 20.6
2016-May-27 14:50 129 2 gusting 6 20.6
2016-May-27 14:45 101 2 gusting 6 20.6
2016-May-27 14:40 117 3 gusting 6 20.6
2016-May-27 14:35 150 4 gusting 6 20.6
2016-May-27 14:30 124 2 gusting 5 20.6
2016-May-27 14:25 138 4 gusting 6 21.1
2016-May-27 14:20 148 1 gusting 6 21.1
2016-May-27 14:15 120 1 gusting 6 21.1
2016-May-27 14:10 157 1 gusting 4 21.1
2016-May-27 14:05 106 2 gusting 6 21.1
2016-May-27 14:00 109 1 gusting 6 20.6
2016-May-27 13:55 141 2 gusting 6 20.6
2016-May-27 13:50 133 2 gusting 6 20.6
2016-May-27 13:45 160 2 gusting 7 20.6
2016-May-27 13:40 143 4 gusting 6 20.6
2016-May-27 13:35 136 2 gusting 6 20.6
2016-May-27 13:30 137 3 gusting 6 20.6
2016-May-27 13:25 149 4 gusting 6 20.6
2016-May-27 13:20 155 3 gusting 7 21.1
2016-May-27 13:15 149 4 gusting 10 21.1
2016-May-27 13:10 154 1 gusting 6 21.1
2016-May-27 13:05 153 2 gusting 6 21.7
2016-May-27 13:00 145 3 gusting 6 21.1
2016-May-27 12:55 098 2 gusting 6 21.1
2016-May-27 12:50 137 5 gusting 10 21.1
2016-May-27 12:40 098 2 gusting 7 21.7
2016-May-27 12:35 111 4 gusting 8 21.7
2016-May-27 12:30 172 4 gusting 7 21.1
2016-May-27 12:25 102 4 gusting 10 21.7
2016-May-27 12:20 161 3 gusting 6 21.7
2016-May-27 12:15 148 2 gusting 8 21.7
2016-May-27 12:10 102 2 gusting 6 21.7
2016-May-27 12:05 159 4 gusting 10 21.7
2016-May-27 12:00 145 4 gusting 7 22.2
2016-May-27 11:55 135 3 gusting 7 21.7
2016-May-27 11:50 100 3 gusting 6 22.2
2016-May-27 11:45 079 1 gusting 6 22.2
2016-May-27 11:40 165 2 gusting 6 21.7
2016-May-27 11:35 126 3 gusting 7 21.7
2016-May-27 11:30 159 4 gusting 7 21.7
2016-May-27 11:25 132 2 gusting 6 21.7
2016-May-27 11:20 081 4 gusting 7 22.2
2016-May-27 11:15 120 4 gusting 6 22.2
2016-May-27 11:10 131 3 gusting 6 22.2
2016-May-27 11:05 142 2 gusting 7 22.2
2016-May-27 11:00 086 2 gusting 6 21.7
2016-May-27 10:55 104 2 gusting 6 21.7
2016-May-27 10:50 134 3 gusting 6 21.1
2016-May-27 10:45 142 2 gusting 6 21.1
2016-May-27 10:40 157 4 gusting 7 21.1
2016-May-27 10:35 131 2 gusting 6 21.1
2016-May-27 10:30 114 3 gusting 8 21.1
2016-May-27 10:25 142 4 gusting 8 21.1
2016-May-27 10:20 152 5 gusting 10 21.7
2016-May-27 10:15 125 4 gusting 8 22.2
2016-May-27 10:10 150 2 gusting 6 22.2
2016-May-27 10:05 145 2 gusting 6 21.7
2016-May-27 10:00 153 0 gusting 4 21.7
2016-May-27 09:55 069 0 gusting 2 21.1
2016-May-27 09:50 168 3 gusting 6 21.1
2016-May-27 09:45 135 1 gusting 6 21.1
2016-May-27 09:40 152 0 gusting 5 21.7
2016-May-27 09:35 118 0 gusting 5 21.1
2016-May-27 09:30 175 0 gusting 2 21.1
2016-May-27 09:25 194 0 gusting 2 20.6
2016-May-27 09:20 158 2 gusting 5 20.6
2016-May-27 09:15 159 1 gusting 4 20.6
2016-May-27 09:10 206 0 gusting 2 20.6
2016-May-27 09:05 191 0 gusting 4 20.0
2016-May-27 09:00 175 1 gusting 5 20.0
2016-May-27 08:55 154 2 gusting 6 20.0
2016-May-27 08:50 152 2 gusting 5 20.0
2016-May-27 08:45 120 0 gusting 4 20.0
2016-May-27 08:40 128 1 gusting 4 20.0
2016-May-27 08:35 141 2 gusting 6 20.0
2016-May-27 08:30 155 1 gusting 5 20.0
2016-May-27 08:25 152 2 gusting 4 20.0
2016-May-27 08:20 125 20.0
2016-May-27 08:15 168 20.0
2016-May-27 08:10 105 20.0
2016-May-27 08:05 145 1 gusting 4 20.6
2016-May-27 08:00 005 20.0
2016-May-27 07:55 005 20.0
2016-May-27 07:50 005 20.0
2016-May-27 07:45 005 19.4
2016-May-27 07:40 005 19.4
2016-May-27 07:35 005 19.4
2016-May-27 07:30 005 18.9
2016-May-27 07:25 005 18.9
2016-May-27 07:20 005 18.3
2016-May-27 07:15 005 18.3
2016-May-27 07:10 005 18.3
2016-May-27 07:05 005 0 gusting 2 17.8
2016-May-27 07:00 005 0 gusting 2 17.8
2016-May-27 06:55 005 0 gusting 2 17.8
2016-May-27 06:50 050 0 gusting 2 17.2
2016-May-27 06:40 349 0 gusting 2 17.2
2016-May-27 06:35 001 0 gusting 2 17.2
2016-May-27 06:30 350 16.7
2016-May-27 06:25 350 0 gusting 2 16.7
2016-May-27 06:20 356 0 gusting 2 16.7
2016-May-27 06:15 034 16.7
2016-May-27 06:10 034 16.7
2016-May-27 06:05 034 0 gusting 2 16.7
2016-May-27 06:00 034 16.7
2016-May-27 05:55 034 16.7
2016-May-27 05:50 034 16.7
2016-May-27 05:45 034 16.7
2016-May-27 05:40 034 16.7
2016-May-27 05:35 034 16.7
2016-May-27 05:30 034 17.2
2016-May-27 05:25 034 17.2
2016-May-27 05:20 034 17.2
2016-May-27 05:15 034 1 gusting 2 16.7
2016-May-27 05:10 034 16.7
2016-May-27 05:05 034 16.7
2016-May-27 05:00 034 17.2
2016-May-27 04:55 034 17.2
2016-May-27 04:50 034 17.2
2016-May-27 04:45 034 17.2
2016-May-27 04:40 034 17.2
2016-May-27 04:35 034 17.2
2016-May-27 04:30 034 17.2
2016-May-27 04:25 034 0 gusting 2 17.2
2016-May-27 04:20 034 17.2
2016-May-27 04:15 034 17.2
2016-May-27 04:10 034 17.2
2016-May-27 04:05 034 17.2
2016-May-27 04:00 034 17.2
2016-May-27 03:55 034 17.2
2016-May-27 03:50 034 16.7
2016-May-27 03:45 034 0 gusting 2 16.7
2016-May-27 03:40 034 17.2
2016-May-27 03:35 034 17.2
2016-May-27 03:30 034 17.2
2016-May-27 03:25 034 17.2
2016-May-27 03:20 034 17.2
2016-May-27 03:15 034 17.2
2016-May-27 03:10 034 17.8
2016-May-27 03:05 034 17.8
2016-May-27 03:00 034 17.8
2016-May-27 02:55 034 17.8
2016-May-27 02:50 034 17.8
2016-May-27 02:45 034 17.8
2016-May-27 02:40 034 17.2
2016-May-27 02:35 034 17.2
2016-May-27 02:30 034 1 gusting 2 17.2
2016-May-27 02:25 307 17.2
2016-May-27 02:20 307 17.2
2016-May-27 02:15 307 1 gusting 2 17.2
2016-May-27 02:10 307 1 gusting 2 17.2
2016-May-27 02:05 319 17.2
2016-May-27 02:00 319 17.2
2016-May-27 01:55 319 17.8
2016-May-27 01:50 319 17.8
2016-May-27 01:45 301 1 gusting 2 17.8
2016-May-27 01:40 301 17.8
2016-May-27 01:35 302 1 gusting 2 17.8
2016-May-27 01:30 307 0 gusting 4 17.8
2016-May-27 01:25 293 2 gusting 4 17.8
2016-May-27 01:20 299 2 gusting 6 17.8
2016-May-27 01:15 296 4 gusting 5 18.3
2016-May-27 01:10 300 2 gusting 5 17.8
2016-May-27 00:55 302 2 gusting 4 17.8
2016-May-27 00:40 196 6 gusting 2 20.6
2016-May-27 00:35 196 6 gusting 2 20.6
2016-May-27 00:30 196 6 gusting 2 20.6
2016-May-27 00:25 196 6 gusting 2 20.6
2016-May-27 00:20 196 6 gusting 2 20.6
2016-May-27 00:15 196 6 gusting 2 20.6
2016-May-27 00:10 196 6 gusting 2 20.6
2016-May-27 00:05 196 6 gusting 2 20.6
2016-May-27 00:00 196 6 gusting 2 20.6
2016-May-26 23:55 196 6 gusting 2 20.6
2016-May-26 23:50 196 6 gusting 2 20.6
2016-May-26 23:45 196 6 gusting 2 20.6
2016-May-26 23:40 196 6 gusting 2 20.6
2016-May-26 23:35 196 6 gusting 2 20.6
2016-May-26 23:30 196 6 gusting 2 20.6
2016-May-26 23:25 196 6 gusting 2 20.6
2016-May-26 23:20 196 6 gusting 2 20.6
2016-May-26 23:15 196 6 gusting 2 20.6
2016-May-26 23:10 196 6 gusting 2 20.6
2016-May-26 23:05 196 6 gusting 2 20.6
2016-May-26 23:00 196 6 gusting 2 20.6
2016-May-26 22:55 196 6 gusting 2 20.6
2016-May-26 22:50 196 6 gusting 2 20.6
2016-May-26 22:45 196 6 gusting 2 20.6
2016-May-26 22:40 196 6 gusting 2 20.6
2016-May-26 22:35 196 6 gusting 2 20.6
2016-May-26 22:30 196 6 gusting 2 20.6
2016-May-26 22:25 196 6 gusting 2 20.6
2016-May-26 22:20 196 6 gusting 2 20.6
2016-May-26 22:15 196 6 gusting 2 20.6
2016-May-26 22:10 196 6 gusting 2 20.6
2016-May-26 22:05 196 6 gusting 2 20.6
2016-May-26 22:00 196 6 gusting 2 20.6